DW3471 Weather Reports


Display with metric or nautical units.
time (UTC)temp
F
wind
direction
speed
MPH
gust
MPH
rain 1hr
in
rain 24hr
in
rain mn
in
humidity
%
barometer
mb
20260504222650 73 357 1.0 7.0 0.00 0.00 0.00 36 1008.9
20260504221649 73 208 2.0 4.0 0.00 0.00 0.00 35 1008.9
20260504220649 74 37 1.0 6.0 0.00 0.00 0.00 35 1008.9
20260504215649 74 273 2.0 7.0 0.00 0.00 0.00 36 1009.3
20260504214617 73 349 2.0 5.0 0.00 0.00 0.00 35 1009.3
20260504213545 74 254 3.0 7.0 0.00 0.00 0.00 33 1009.3
20260504212545 75 299 2.0 5.0 0.00 0.00 0.00 34 1009.3
20260504211544 75 246 0.0 3.0 0.00 0.00 0.00 34 1009.3
20260504210512 75 291 3.0 5.0 0.00 0.00 0.00 33 1009.3
20260504205441 75 53 2.0 5.0 0.00 0.00 0.00 33 1009.3
20260504204440 76 358 2.0 4.0 0.00 0.00 0.00 33 1009.3
20260504203439 75 286 2.0 5.0 0.00 0.00 0.00 33 1009.3
20260504202439 75 22 1.0 6.0 0.00 0.00 0.00 33 1009.3
20260504201438 75 37 2.0 7.0 0.00 0.00 0.00 32 1009.3
20260504200437 74 317 2.0 7.0 0.00 0.00 0.00 32 1009.3
20260504195436 74 241 2.0 7.0 0.00 0.00 0.00 33 1009.3
20260504194436 74 239 3.0 5.0 0.00 0.00 0.00 32 1009.6
20260504193435 74 218 2.0 7.0 0.00 0.00 0.00 32 1009.6
20260504192434 75 314 2.0 5.0 0.00 0.00 0.00 32 1009.6
20260504191331 75 287 2.0 6.0 0.00 0.00 0.00 34 1010.0
20260504190331 74 18 2.0 8.0 0.00 0.00 0.00 33 1010.0
20260504185228 74 347 2.0 8.0 0.00 0.00 0.00 32 1010.3
20260504184157 74 284 1.0 9.0 0.00 0.00 0.00 32 1010.3
20260504183156 73 60 2.0 5.0 0.00 0.00 0.00 34 1010.3
20260504182156 74 258 3.0 11.0 0.00 0.00 0.00 32 1010.7
20260504181052 74 253 2.0 5.0 0.00 0.00 0.00 34 1010.7
20260504180052 73 296 2.0 5.0 0.00 0.00 0.00 33 1011.0
20260504175051 72 170 2.0 5.0 0.00 0.00 0.00 37 1011.0
20260504174020 72 276 3.0 6.0 0.00 0.00 0.00 34 1011.3
20260504173019 72 19 1.0 5.0 0.00 0.00 0.00 33 1011.3
20260504172019 71 266 2.0 5.0 0.00 0.00 0.00 34 1011.3
20260504171018 71 303 3.0 5.0 0.00 0.00 0.00 35 1011.6
20260504150941 66 84 1.0 4.0 0.00 0.00 0.00 44 1012.9
20260504140906 61 275 1.0 6.0 0.00 0.00 0.00 53 1013.2
20260504081406 46 265 0.0 0.0 0.00 0.00 0.00 68 1013.8
20260504080406 46 265 0.0 1.0 0.00 0.00 0.00 68 1013.8
20260504070402 47 287 0.0 0.0 0.00 0.00 0.00 59 1013.8
20260504060227 48 82 0.0 3.0 0.00 0.00 0.00 57 1013.8
20260504050223 49 58 0.0 0.0 0.00 0.00 0.00 55 1013.8
20260504045222 49 58 0.0 0.0 0.00 0.00 0.00 54 1013.4
20260504044222 49 59 1.0 1.0 0.00 0.00 0.00 54 1013.8
20260504043221 50 347 0.0 0.0 0.00 0.00 0.00 53 1013.4
20260504042221 50 348 0.0 1.0 0.00 0.00 0.00 53 1013.4
20260504041220 50 290 0.0 1.0 0.00 0.00 0.00 54 1013.1
20260504040148 50 290 0.0 2.0 0.00 0.00 0.00 53 1013.1
20260504035117 50 309 0.0 1.0 0.00 0.00 0.00 53 1013.1
20260504034116 50 229 0.0 0.0 0.00 0.00 0.00 53 1013.1
20260504033115 50 204 0.0 1.0 0.00 0.00 0.00 53 1013.0
20260504030905 50 329 2.0 2.0 0.00 0.00 0.00 52 1013.0
20260504025904 50 42 1.0 1.0 0.00 0.00 0.00 53 1013.1
20260504024904 50 325 0.0 2.0 0.00 0.00 0.00 53 1013.0
20260504023902 51 92 0.0 0.0 0.00 0.00 0.00 52 1013.0
20260504022902 51 180 0.0 0.0 0.00 0.00 0.00 52 1013.1
20260504021830 51 180 0.0 1.0 0.00 0.00 0.00 51 1013.1
20260504020830 51 218 1.0 1.0 0.00 0.00 0.00 51 1013.1
20260504015829 51 222 0.0 1.0 0.00 0.00 0.00 50 1012.7
20260504014828 51 221 0.0 0.0 0.00 0.00 0.00 51 1013.1
20260504013828 52 212 0.0 0.0 0.00 0.00 0.00 50 1012.7
20260504012827 52 212 0.0 0.0 0.00 0.00 0.00 50 1012.7
20260504011826 52 213 0.0 1.0 0.00 0.00 0.00 49 1012.8
20260504010825 52 279 0.0 2.0 0.00 0.00 0.00 49 1012.4
20260504005825 53 336 0.0 0.0 0.00 0.00 0.00 49 1012.4
20260504004825 53 336 0.0 0.0 0.00 0.00 0.00 48 1012.4
20260504003824 54 336 0.0 0.0 0.00 0.00 0.00 47 1012.1
20260504002823 55 336 0.0 0.0 0.00 0.00 0.00 45 1012.1
20260504001823 56 335 0.0 0.0 0.00 0.00 0.00 43 1012.2
20260504000822 56 335 0.0 0.0 0.00 0.00 0.00 42 1011.9
20260503235821 57 333 0.0 1.0 0.00 0.00 0.00 40 1011.7
20260503234821 58 333 0.0 1.0 0.00 0.00 0.00 39 1011.7
20260503233820 58 292 1.0 3.0 0.00 0.00 0.00 37 1011.7
20260503232820 59 307 2.0 4.0 0.00 0.00 0.00 36 1011.4
20260503231819 59 315 3.0 4.0 0.00 0.00 0.00 36 1011.4
20260503230748 59 283 2.0 5.0 0.00 0.00 0.00 34 1011.4
20260503225747 60 282 3.0 6.0 0.00 0.00 0.00 35 1011.4
20260503224644 60 289 2.0 5.0 0.00 0.00 0.00 34 1011.4
20260503223613 60 290 2.0 6.0 0.00 0.00 0.00 34 1011.4